WXM80 ListenWXM80 Stop

You find our weather info also at:

UK Metoffice

WeatherCloud

Weather Underground

Northeastern Weather Network

AWEKAS

Citizen Weather Observer Program (CWOP)

HAMweather, WeatherForYou, PWS Weather


Weather Underground History page Text

Daily Summary for June 5, 2017 Units:  Metric    English   Both
« Previous Day
Next Day »
Daily Weekly Monthly Yearly Custom
  High: Low: Average:
Temperature: 17.2 °C 14.2 °C 15.7 °C
Dew Point: 16.2 °C 13.1 °C 15.1 °C
Humidity: 97 % 93 % 96 %
Wind Speed: 11.3 km/h 0 km/h 2.3 km/h
Wind Gust: 18.5 km/h - -
Wind:- - ENE
Pressure: 1010 hPa 1005.6 hPa -
Precipitation: 1.27 mm    
Historical Graphs
 
 
Tabular Data for June 5, 2017
Time Temperature Dew Point Pressure Wind Wind Speed Wind Gust Humidity Rainfall Rate (Hourly)
00:02 14.2 °C 13.1 °C 1009 hPa Calm     93 % 0 mm
00:07 14.2 °C 13.1 °C 1009 hPa Calm     93 % 0 mm
00:12 14.2 °C 13.1 °C 1009 hPa Calm     93 % 0 mm
00:17 14.2 °C 13.2 °C 1009.4 hPa NE 0.2 km/h 1.6 km/h 94 % 0 mm
00:22 14.2 °C 13.3 °C 1010 hPa North 4.3 km/h 8 km/h 94 % 0 mm
00:27 14.3 °C 13.3 °C 1009.7 hPa NNE 0.8 km/h 5.6 km/h 94 % 0 mm
00:32 14.3 °C 13.4 °C 1009.4 hPa NE 0.5 km/h 5.6 km/h 94 % 0.25 mm
00:37 14.4 °C 13.6 °C 1009 hPa Calm     95 % 0.25 mm
00:42 14.5 °C 13.7 °C 1009 hPa Calm     95 % 0.25 mm
00:47 14.6 °C 13.8 °C 1009.4 hPa Calm   1.9 km/h 95 % 0.51 mm
00:52 14.6 °C 13.8 °C 1009 hPa Calm     95 % 0.76 mm
00:57 14.6 °C 13.8 °C 1009 hPa Calm     95 % 0.76 mm
01:03 14.6 °C 13.8 °C 1009 hPa NE 1.3 km/h 1.9 km/h 95 % 0.76 mm
01:08 14.7 °C 13.9 °C 1008.7 hPa NE 0.2 km/h 1.9 km/h 95 % 0.76 mm
01:13 14.7 °C 13.9 °C 1008.7 hPa Calm     95 % 0.76 mm
01:18 14.7 °C 13.9 °C 1009 hPa NE 0.2 km/h 3.7 km/h 95 % 0.76 mm
01:23 14.7 °C 13.9 °C 1009 hPa Calm     95 % 0.76 mm
01:28 14.7 °C 13.9 °C 1008.7 hPa Calm     95 % 0.76 mm
01:33 14.7 °C 13.9 °C 1008.7 hPa Calm     95 % 0.51 mm
01:38 14.7 °C 13.9 °C 1008.4 hPa Calm     95 % 0.51 mm
01:43 14.7 °C 13.9 °C 1008 hPa Calm     95 % 0.51 mm
01:48 14.6 °C 13.8 °C 1008 hPa NE 0.3 km/h 1.6 km/h 95 % 0.25 mm
01:50 14.7 °C 13.9 °C 1008 hPa Calm   1.6 km/h 95 % 0 mm
01:56 14.6 °C 13.8 °C 1008 hPa Calm   3.2 km/h 95 % 0 mm
02:01 14.6 °C 13.8 °C 1007.7 hPa Calm     95 % 0 mm
02:06 14.6 °C 13.8 °C 1007.7 hPa Calm   1.9 km/h 95 % 0 mm
02:11 14.6 °C 13.8 °C 1007.7 hPa Calm     95 % 0 mm
02:16 14.6 °C 13.8 °C 1007.7 hPa Calm   3.7 km/h 95 % 0 mm
02:21 14.6 °C 13.8 °C 1007.7 hPa Calm     95 % 0 mm
02:26 14.6 °C 13.8 °C 1007.7 hPa Calm     95 % 0 mm
02:31 14.6 °C 13.8 °C 1007.7 hPa Calm   1.6 km/h 95 % 0 mm
02:36 14.6 °C 13.8 °C 1007.7 hPa NE 0.3 km/h 1.9 km/h 95 % 0 mm
02:41 14.6 °C 13.8 °C 1007.7 hPa North 0.3 km/h 3.7 km/h 95 % 0 mm
02:46 14.6 °C 13.8 °C 1007.3 hPa NE 2.6 km/h 6.4 km/h 95 % 0 mm
02:51 14.7 °C 14.1 °C 1007.3 hPa NE 1.3 km/h 5.6 km/h 96 % 0.25 mm
02:56 14.7 °C 14.1 °C 1007.3 hPa ENE 2.4 km/h 5.6 km/h 96 % 0.25 mm
03:01 14.8 °C 14.2 °C 1007.3 hPa Calm     96 % 0.25 mm
03:06 14.8 °C 14.2 °C 1007.3 hPa Calm     96 % 0.25 mm
03:11 14.8 °C 14.2 °C 1007 hPa Calm     96 % 0.25 mm
03:16 14.8 °C 14.2 °C 1007 hPa Calm     96 % 0.25 mm
03:21 14.8 °C 14.2 °C 1007 hPa Calm   1.9 km/h 96 % 0.25 mm
03:26 14.8 °C 14.2 °C 1007 hPa Calm     96 % 0.25 mm
03:31 14.8 °C 14.2 °C 1007 hPa Calm     96 % 0.25 mm
03:37 14.8 °C 14.2 °C 1007 hPa Calm     96 % 0.25 mm
03:42 14.8 °C 14.2 °C 1007 hPa Calm     96 % 0.25 mm
03:47 14.8 °C 14.2 °C 1007 hPa Calm     96 % 0.25 mm
03:52 14.8 °C 14.2 °C 1006.7 hPa NE 0.5 km/h 1.9 km/h 96 % 0 mm
03:57 14.8 °C 14.2 °C 1006.7 hPa Calm     96 % 0.25 mm
04:02 14.8 °C 14.2 °C 1006.3 hPa NE 0.3 km/h 3.7 km/h 96 % 0.25 mm
04:07 14.8 °C 14.2 °C 1006.7 hPa Calm     96 % 0.25 mm
04:12 14.8 °C 14.2 °C 1006.7 hPa Calm     96 % 0.25 mm
04:17 14.8 °C 14.2 °C 1006.7 hPa Calm     96 % 0.25 mm
04:22 14.8 °C 14.2 °C 1006.7 hPa Calm     96 % 0.25 mm
04:27 14.8 °C 14.2 °C 1006.7 hPa Calm     96 % 0.25 mm
04:32 14.8 °C 14.2 °C 1006.3 hPa Calm     96 % 0.25 mm
04:37 14.8 °C 14.2 °C 1006.3 hPa Calm     96 % 0.25 mm
04:42 14.8 °C 14.2 °C 1006.3 hPa Calm     96 % 0.25 mm
04:47 14.8 °C 14.2 °C 1006.3 hPa Calm     96 % 0.25 mm
04:52 14.9 °C 14.3 °C 1006.3 hPa Calm     96 % 0.25 mm
04:57 14.9 °C 14.3 °C 1006.3 hPa Calm     96 % 0 mm
05:02 14.9 °C 14.3 °C 1006.3 hPa Calm     96 % 0 mm
05:07 14.9 °C 14.3 °C 1006.3 hPa Calm     96 % 0 mm
05:12 14.9 °C 14.3 °C 1006.3 hPa Calm     96 % 0 mm
05:17 14.9 °C 14.3 °C 1006 hPa Calm     96 % 0 mm
05:22 15 °C 14.4 °C 1006 hPa Calm     96 % 0 mm
05:27 15 °C 14.4 °C 1006 hPa Calm     96 % 0 mm
05:32 15.1 °C 14.4 °C 1006 hPa Calm     96 % 0 mm
05:37 15.1 °C 14.4 °C 1006 hPa NE 1 km/h 3.7 km/h 96 % 0 mm
05:42 15.1 °C 14.4 °C 1006 hPa Calm     96 % 0 mm
05:47 15.1 °C 14.4 °C 1006.3 hPa Calm     96 % 0 mm
05:49 15.1 °C 14.5 °C 1006 hPa Calm   1.9 km/h 96 % 0 mm
05:54 15.1 °C 14.5 °C 1006 hPa Calm   3.7 km/h 96 % 0 mm
05:59 15.2 °C 14.7 °C 1006 hPa Calm   3.7 km/h 97 % 0 mm
06:04 15.2 °C 14.7 °C 1006.3 hPa Calm     97 % 0 mm
06:09 15.3 °C 14.8 °C 1006.3 hPa Calm   1.9 km/h 97 % 0 mm
06:14 15.3 °C 14.8 °C 1006.3 hPa NE 0.3 km/h 1.9 km/h 97 % 0 mm
06:19 15.3 °C 14.8 °C 1006.3 hPa NE 2.3 km/h 5.6 km/h 97 % 0 mm
06:25 15.4 °C 14.9 °C 1006.3 hPa NNE 1 km/h 3.7 km/h 97 % 0 mm
06:30 15.4 °C 14.9 °C 1006.3 hPa ENE 1.1 km/h 3.7 km/h 97 % 0 mm
06:35 15.4 °C 14.9 °C 1006.3 hPa NE 2.1 km/h 3.7 km/h 97 % 0 mm
06:40 15.4 °C 14.9 °C 1006.3 hPa ENE 3.4 km/h 7.4 km/h 97 % 0 mm
06:45 15.4 °C 14.9 °C 1006.3 hPa ENE 4 km/h 7.4 km/h 97 % 0 mm
06:50 15.4 °C 14.9 °C 1006.3 hPa ENE 3.5 km/h 7.4 km/h 97 % 0 mm
06:55 15.4 °C 14.9 °C 1006.3 hPa ENE 0.6 km/h 5.6 km/h 97 % 0 mm
07:00 15.4 °C 14.9 °C 1006.3 hPa ENE 1.3 km/h 5.6 km/h 97 % 0 mm
07:05 15.4 °C 14.9 °C 1006.3 hPa NE 0.3 km/h 1.9 km/h 97 % 0 mm
07:10 15.4 °C 14.9 °C 1006.3 hPa Calm   1.9 km/h 97 % 0 mm
07:15 15.4 °C 14.9 °C 1006.3 hPa ENE 3.4 km/h 5.6 km/h 97 % 0 mm
07:20 15.4 °C 14.9 °C 1006.3 hPa East 1.4 km/h 5.6 km/h 97 % 0 mm
07:25 15.4 °C 14.9 °C 1006.7 hPa ENE 2.9 km/h 6.4 km/h 97 % 0 mm
07:30 15.3 °C 14.8 °C 1006.3 hPa ENE 2.6 km/h 5.6 km/h 97 % 0 mm
07:35 15.3 °C 14.8 °C 1006.7 hPa NE 3.9 km/h 7.4 km/h 97 % 0 mm
07:40 15.3 °C 14.8 °C 1006.7 hPa NNE 4.3 km/h 11.1 km/h 97 % 0 mm
07:45 15.3 °C 14.8 °C 1006.7 hPa NE 4.5 km/h 7.4 km/h 97 % 0 mm
07:50 15.3 °C 14.8 °C 1006.7 hPa NE 6.4 km/h 11.1 km/h 97 % 0 mm
07:55 15.3 °C 14.8 °C 1006.7 hPa ENE 2.7 km/h 5.6 km/h 97 % 0 mm
07:58 15.3 °C 14.8 °C 1006.7 hPa ENE 6.8 km/h 11.1 km/h 97 % 0 mm
08:03 15.2 °C 14.7 °C 1006.7 hPa ENE 6.8 km/h 12.9 km/h 97 % 0 mm
08:08 15.2 °C 14.7 °C 1006.3 hPa ENE 9.2 km/h 17.7 km/h 97 % 0 mm
08:13 15.1 °C 14.5 °C 1006.7 hPa NE 4.5 km/h 11.3 km/h 96 % 0 mm
08:18 15.2 °C 14.7 °C 1006.7 hPa ENE 4.2 km/h 7.4 km/h 97 % 0 mm
08:23 15.2 °C 14.7 °C 1006.7 hPa NE 3.4 km/h 6.4 km/h 97 % 0 mm
08:28 15.1 °C 14.5 °C 1006.7 hPa ENE 4 km/h 11.1 km/h 96 % 0 mm
08:33 15.2 °C 14.7 °C 1006.7 hPa NE 3.5 km/h 3.7 km/h 97 % 0 mm
08:38 15.2 °C 14.7 °C 1006.7 hPa ENE 1.6 km/h 7.4 km/h 97 % 0 mm
08:43 15.2 °C 14.7 °C 1007 hPa Calm   1.9 km/h 97 % 0 mm
08:49 15.2 °C 14.7 °C 1007.3 hPa ENE 3.5 km/h 7.4 km/h 97 % 0 mm
08:54 15.2 °C 14.7 °C 1007.3 hPa NE 1.6 km/h 5.6 km/h 97 % 0 mm
08:59 15.2 °C 14.7 °C 1007.3 hPa ENE 4 km/h 13 km/h 97 % 0 mm
09:04 15.2 °C 14.6 °C 1007.3 hPa NE 3.5 km/h 11.1 km/h 96 % 0 mm
09:09 15.2 °C 14.6 °C 1007 hPa ENE 2.7 km/h 4.8 km/h 96 % 0 mm
09:14 15.2 °C 14.7 °C 1007 hPa ENE 3.9 km/h 7.4 km/h 97 % 0 mm
09:19 15.2 °C 14.7 °C 1007.3 hPa ENE 3.9 km/h 5.6 km/h 97 % 0 mm
09:24 15.2 °C 14.6 °C 1007.3 hPa Calm   1.9 km/h 96 % 0 mm
09:29 15.3 °C 14.8 °C 1007.3 hPa ENE 0.8 km/h 1.9 km/h 97 % 0 mm
09:34 15.3 °C 14.7 °C 1007.3 hPa ENE 1.3 km/h 3.7 km/h 96 % 0 mm
09:39 15.4 °C 14.8 °C 1007.3 hPa ENE 0.3 km/h 1.9 km/h 96 % 0 mm
09:44 15.4 °C 14.8 °C 1007.3 hPa NE 0.3 km/h 1.9 km/h 96 % 0 mm
09:45 15.4 °C 14.8 °C 1007.3 hPa Calm   1.9 km/h 96 % 0 mm
09:50 15.6 °C 15.1 °C 1007.3 hPa NE 1 km/h 3.7 km/h 97 % 0 mm
09:55 15.7 °C 15.2 °C 1007.3 hPa NE 0.5 km/h 1.9 km/h 97 % 0 mm
10:00 15.7 °C 15.2 °C 1007.3 hPa NE 0.3 km/h 1.9 km/h 97 % 0 mm
10:05 15.8 °C 15.2 °C 1007.3 hPa NE 0.2 km/h 1.9 km/h 96 % 0 mm
10:10 15.8 °C 15.2 °C 1007.3 hPa NE 0.6 km/h 1.9 km/h 96 % 0 mm
10:15 15.9 °C 15.4 °C 1007.3 hPa NE 0.8 km/h 1.9 km/h 97 % 0 mm
10:20 16.1 °C 15.6 °C 1007.3 hPa NE 0.3 km/h 1.9 km/h 97 % 0 mm
10:25 16.2 °C 15.6 °C 1007.3 hPa NE 0.5 km/h 1.9 km/h 96 % 0 mm
10:30 16.3 °C 15.8 °C 1007.3 hPa Calm   1.9 km/h 97 % 0 mm
10:36 16.3 °C 15.7 °C 1007.3 hPa Calm   3.2 km/h 96 % 0 mm
10:41 16.4 °C 15.7 °C 1007.3 hPa ENE 1.6 km/h 6.4 km/h 96 % 0 mm
10:46 16.3 °C 15.6 °C 1007.3 hPa Calm   8 km/h 95 % 0 mm
10:51 16.4 °C 15.6 °C 1007.3 hPa NE 3.2 km/h 6.4 km/h 95 % 0 mm
10:56 16.4 °C 15.6 °C 1007.3 hPa ENE 1.6 km/h 6.4 km/h 95 % 0 mm
11:01 16.4 °C 15.6 °C 1007.3 hPa NE 5 km/h 9.3 km/h 95 % 0 mm
11:06 16.4 °C 15.7 °C 1007.3 hPa ENE 4.3 km/h 8 km/h 95 % 0 mm
11:11 16.4 °C 15.4 °C 1007.3 hPa ENE 1.6 km/h 8 km/h 94 % 0 mm
11:13 16.3 °C 15.4 °C 1007.3 hPa ENE 4.8 km/h 7.4 km/h 94 % 0 mm
11:18 16.3 °C 15.4 °C 1007.3 hPa NE 2.9 km/h 5.6 km/h 94 % 0 mm
11:23 16.3 °C 15.3 °C 1007.3 hPa ENE 1 km/h 5.6 km/h 94 % 0 mm
11:28 16.2 °C 15.3 °C 1007.3 hPa ENE 3.4 km/h 6.4 km/h 94 % 0 mm
11:33 16.2 °C 15.2 °C 1007.3 hPa ENE 1.1 km/h 3.7 km/h 94 % 0 mm
11:39 16.2 °C 15.3 °C 1007.3 hPa ENE 1.6 km/h 3.7 km/h 94 % 0 mm
11:44 16.2 °C 15.3 °C 1007.3 hPa ENE 4.2 km/h 6.4 km/h 94 % 0 mm
11:49 16.2 °C 15.3 °C 1007.3 hPa NE 4.5 km/h 9.3 km/h 94 % 0 mm
11:54 16.2 °C 15.3 °C 1007.3 hPa ENE 4.5 km/h 7.4 km/h 94 % 0 mm
11:59 16.2 °C 15.3 °C 1007.3 hPa ENE 2.6 km/h 5.6 km/h 94 % 0 mm
12:04 16.3 °C 15.3 °C 1007.3 hPa ENE 6.1 km/h 13 km/h 94 % 0 mm
12:09 16.3 °C 15.3 °C 1007.3 hPa ENE 1.9 km/h 3.7 km/h 94 % 0 mm
12:14 16.3 °C 15.4 °C 1007.3 hPa ENE 4.8 km/h 5.6 km/h 94 % 0 mm
12:19 16.3 °C 15.3 °C 1007.3 hPa ENE 1.4 km/h 5.6 km/h 94 % 0 mm
12:24 16.3 °C 15.3 °C 1007.3 hPa ENE 5.1 km/h 7.4 km/h 94 % 0 mm
12:29 16.3 °C 15.3 °C 1007 hPa ENE 5 km/h 13 km/h 94 % 0 mm
12:34 16.3 °C 15.4 °C 1007.3 hPa ENE 5.5 km/h 8 km/h 94 % 0 mm
12:39 16.3 °C 15.4 °C 1007 hPa ENE 1.9 km/h 5.6 km/h 94 % 0 mm
12:44 16.3 °C 15.6 °C 1007 hPa ENE 3.4 km/h 9.3 km/h 95 % 0 mm
12:49 16.4 °C 15.4 °C 1007 hPa ENE 3.4 km/h 5.6 km/h 94 % 0 mm
12:54 16.4 °C 15.6 °C 1007 hPa ENE 3.7 km/h 5.6 km/h 95 % 0 mm
12:59 16.3 °C 15.4 °C 1007 hPa ENE 5.3 km/h 11.1 km/h 94 % 0 mm
13:04 16.3 °C 15.4 °C 1007 hPa ENE 1.4 km/h 5.6 km/h 94 % 0 mm
13:09 16.4 °C 15.6 °C 1007 hPa ENE 2.1 km/h 3.7 km/h 95 % 0 mm
13:14 16.4 °C 15.6 °C 1007 hPa East 3.7 km/h 5.6 km/h 95 % 0 mm
13:19 16.4 °C 15.6 °C 1007 hPa ENE 2.6 km/h 5.6 km/h 95 % 0 mm
13:24 16.4 °C 15.7 °C 1007 hPa East 2.6 km/h 9.3 km/h 95 % 0 mm
13:29 16.4 °C 15.7 °C 1007 hPa NE 4.5 km/h 5.6 km/h 95 % 0 mm
13:34 16.5 °C 15.7 °C 1007 hPa ENE 1.8 km/h 5.6 km/h 95 % 0 mm
13:39 16.6 °C 15.8 °C 1006.7 hPa ENE 1.8 km/h 3.7 km/h 95 % 0 mm
13:44 16.7 °C 15.9 °C 1006.7 hPa ENE 1.8 km/h 5.6 km/h 95 % 0 mm
13:49 16.8 °C 16 °C 1006.7 hPa ENE 1.8 km/h 3.7 km/h 95 % 0 mm
13:55 16.8 °C 16 °C 1006.7 hPa ENE 3.9 km/h 5.6 km/h 95 % 0 mm
14:00 16.9 °C 15.9 °C 1006.7 hPa NE 1.9 km/h 3.7 km/h 94 % 0 mm
14:05 17.1 °C 16.2 °C 1006.7 hPa ENE 1.8 km/h 3.7 km/h 95 % 0 mm
14:10 17.2 °C 16.2 °C 1006.7 hPa ENE 2.3 km/h 3.7 km/h 94 % 0 mm
14:11 17.2 °C 16.2 °C 1006.7 hPa ENE 1.3 km/h 3.7 km/h 94 % 0 mm
14:16 17.2 °C 16.2 °C 1006.7 hPa ENE 2.3 km/h 5.6 km/h 94 % 0 mm
14:21 17.2 °C 16.2 °C 1006.7 hPa East 2.6 km/h 7.4 km/h 94 % 0 mm
14:26 17.2 °C 16.1 °C 1006.7 hPa ENE 2.9 km/h 3.7 km/h 93 % 0 mm
14:31 17.2 °C 16 °C 1006.7 hPa ENE 2.4 km/h 5.6 km/h 93 % 0 mm
14:36 17.2 °C 16 °C 1006.7 hPa ENE 3.1 km/h 6.4 km/h 93 % 0 mm
14:41 17.1 °C 15.9 °C 1006.3 hPa ENE 2.4 km/h 5.6 km/h 93 % 0 mm
14:46 17.1 °C 15.9 °C 1006.7 hPa ENE 1.6 km/h 4.8 km/h 93 % 0 mm
14:52 17.1 °C 15.9 °C 1006.7 hPa ENE 2.6 km/h 5.6 km/h 93 % 0 mm
14:57 17.1 °C 15.9 °C 1006.7 hPa ENE 5.3 km/h 11.1 km/h 93 % 0 mm
15:02 17.1 °C 15.9 °C 1006.7 hPa NE 4.7 km/h 11.3 km/h 93 % 0 mm
15:07 17.1 °C 15.9 °C 1006.7 hPa ENE 5.8 km/h 7.4 km/h 93 % 0 mm
15:12 17.1 °C 15.9 °C 1006.7 hPa ENE 2.9 km/h 5.6 km/h 93 % 0 mm
15:17 17.1 °C 15.9 °C 1006.7 hPa ENE 3.7 km/h 7.4 km/h 93 % 0 mm
15:18 17.1 °C 15.9 °C 1006.7 hPa ENE 3.4 km/h 7.4 km/h 93 % 0 mm
15:23 17.1 °C 15.9 °C 1006.7 hPa ENE 5.5 km/h 11.1 km/h 93 % 0 mm
15:28 17.1 °C 15.9 °C 1006.7 hPa ENE 2.1 km/h 5.6 km/h 93 % 0 mm
15:33 17 °C 15.8 °C 1006.7 hPa NE 4 km/h 11.1 km/h 93 % 0 mm
15:38 16.9 °C 15.8 °C 1006.3 hPa ENE 2.7 km/h 5.6 km/h 93 % 0 mm
15:43 17 °C 15.8 °C 1006.3 hPa NE 3.2 km/h 5.6 km/h 93 % 0 mm
15:48 17.1 °C 16.1 °C 1006.3 hPa ENE 1 km/h 3.7 km/h 94 % 0 mm
15:53 17.1 °C 16.1 °C 1006.3 hPa ENE 1.4 km/h 3.7 km/h 94 % 0 mm
15:58 17.1 °C 16.1 °C 1006 hPa East 1.9 km/h 3.7 km/h 94 % 0 mm
16:03 17.1 °C 16.1 °C 1006.3 hPa South 1.4 km/h 3.7 km/h 94 % 0 mm
16:08 17.2 °C 16.2 °C 1006.3 hPa ENE 1 km/h 3.7 km/h 94 % 0 mm
16:13 17.2 °C 16.2 °C 1006.3 hPa ENE 1.9 km/h 3.7 km/h 94 % 0 mm
16:18 17.2 °C 16.2 °C 1006 hPa ENE 1.4 km/h 3.7 km/h 94 % 0 mm
16:23 17.2 °C 16.1 °C 1006.3 hPa ENE 0.3 km/h 3.7 km/h 93 % 0 mm
16:28 17.2 °C 16.2 °C 1006.3 hPa ENE 0.6 km/h 1.9 km/h 94 % 0 mm
16:33 17.2 °C 16.2 °C 1006.3 hPa ENE 1.3 km/h 3.7 km/h 94 % 0 mm
16:38 17.2 °C 16.2 °C 1006.3 hPa ENE 1 km/h 3.7 km/h 94 % 0 mm
16:43 17.1 °C 16.1 °C 1006.3 hPa ENE 0.5 km/h 1.9 km/h 94 % 0 mm
16:48 17.1 °C 16.1 °C 1006.3 hPa ENE 1.8 km/h 3.2 km/h 94 % 0 mm
16:53 17.1 °C 16.1 °C 1006.3 hPa ENE 1.8 km/h 3.7 km/h 94 % 0 mm
16:58 17.1 °C 16.1 °C 1006.3 hPa ENE 0.3 km/h 1.9 km/h 94 % 0 mm
17:03 17 °C 16 °C 1006.3 hPa ENE 0.8 km/h 3.2 km/h 94 % 0 mm
17:08 17 °C 16 °C 1006.3 hPa East 1.6 km/h 3.7 km/h 94 % 0 mm
17:13 16.9 °C 15.9 °C 1006.3 hPa East 2.1 km/h 3.7 km/h 94 % 0 mm
17:18 16.9 °C 16.1 °C 1006.3 hPa ESE 2.7 km/h 4.8 km/h 95 % 0 mm
17:23 16.9 °C 16.1 °C 1006 hPa ESE 1.9 km/h 3.7 km/h 95 % 0 mm
17:28 16.9 °C 16.1 °C 1006.3 hPa ESE 1.8 km/h 5.6 km/h 95 % 0 mm
17:33 16.9 °C 16.1 °C 1006 hPa ESE 2.9 km/h 5.6 km/h 95 % 0 mm
17:38 16.9 °C 16.1 °C 1006 hPa ESE 2.6 km/h 3.7 km/h 95 % 0 mm
17:43 16.9 °C 16.1 °C 1006 hPa East 3.2 km/h 5.6 km/h 95 % 0 mm
17:48 16.9 °C 16.1 °C 1006 hPa East 2.4 km/h 5.6 km/h 95 % 0 mm
17:53 16.8 °C 16 °C 1005.6 hPa East 3.1 km/h 5.6 km/h 95 % 0 mm
17:58 16.8 °C 16 °C 1005.6 hPa ESE 1.8 km/h 5.6 km/h 95 % 0 mm
18:03 16.8 °C 16 °C 1005.6 hPa ESE 1.6 km/h 3.7 km/h 95 % 0 mm
18:08 16.8 °C 16 °C 1005.6 hPa ESE 1 km/h 3.2 km/h 95 % 0 mm
18:13 16.8 °C 16 °C 1005.6 hPa ESE 1.6 km/h 3.7 km/h 95 % 0 mm
18:18 16.8 °C 16 °C 1005.6 hPa ESE 1 km/h 3.7 km/h 95 % 0 mm
18:23 16.8 °C 16 °C 1006 hPa ESE 1.1 km/h 3.7 km/h 95 % 0 mm
18:28 16.7 °C 15.9 °C 1006 hPa East 1.9 km/h 5.6 km/h 95 % 0 mm
18:34 16.7 °C 15.9 °C 1006.3 hPa East 1.8 km/h 3.7 km/h 95 % 0 mm
18:39 16.6 °C 15.8 °C 1006.3 hPa East 1.8 km/h 4.8 km/h 95 % 0 mm
18:44 16.6 °C 15.8 °C 1006.3 hPa East 1.4 km/h 3.7 km/h 95 % 0 mm
18:49 16.5 °C 15.7 °C 1006.3 hPa East 2.4 km/h 3.7 km/h 95 % 0 mm
18:54 16.4 °C 15.8 °C 1006.3 hPa East 0.5 km/h 1.9 km/h 96 % 0 mm
18:55 16.4 °C 15.8 °C 1006.7 hPa East 0.8 km/h 1.9 km/h 96 % 0 mm
19:00 16.4 °C 15.7 °C 1006.3 hPa East 1.9 km/h 3.7 km/h 96 % 0 mm
19:05 16.3 °C 15.7 °C 1006.3 hPa East 2.3 km/h 3.7 km/h 96 % 0 mm
19:10 16.3 °C 15.7 °C 1006.3 hPa East 1.8 km/h 3.7 km/h 96 % 0 mm
19:15 16.3 °C 15.7 °C 1006.3 hPa East 2.6 km/h 3.7 km/h 96 % 0 mm
19:21 16.3 °C 15.6 °C 1006.7 hPa East 1.6 km/h 4.8 km/h 96 % 0 mm
19:26 16.2 °C 15.6 °C 1006.7 hPa ENE 1.6 km/h 3.2 km/h 96 % 0 mm
19:31 16.2 °C 15.6 °C 1006.7 hPa Calm   3.2 km/h 96 % 0 mm
19:36 16.2 °C 15.6 °C 1006.7 hPa Calm   3.2 km/h 96 % 0 mm
19:41 16.2 °C 15.6 °C 1006.3 hPa ENE 1.1 km/h 3.7 km/h 96 % 0 mm
19:46 16.2 °C 15.6 °C 1006.7 hPa ENE 2.1 km/h 5.6 km/h 96 % 0 mm
19:51 16.1 °C 15.5 °C 1006.7 hPa ENE 1.6 km/h 3.2 km/h 96 % 0 mm
19:56 16.1 °C 15.5 °C 1006.7 hPa ENE 1.6 km/h 3.2 km/h 96 % 0 mm
20:01 16.1 °C 15.4 °C 1006.3 hPa ENE 3.1 km/h 5.6 km/h 96 % 0 mm
20:06 16.1 °C 15.4 °C 1006.3 hPa ENE 2.3 km/h 3.7 km/h 96 % 0 mm
20:11 16 °C 15.5 °C 1006.3 hPa ENE 1.6 km/h 4.8 km/h 97 % 0 mm
20:16 16 °C 15.5 °C 1006.3 hPa ENE 1.6 km/h 4.8 km/h 97 % 0 mm
20:21 16 °C 15.5 °C 1006 hPa ENE 1.6 km/h 3.2 km/h 97 % 0 mm
20:26 15.9 °C 15.4 °C 1006 hPa ENE 1.6 km/h 4.8 km/h 97 % 0 mm
20:31 15.9 °C 15.4 °C 1006 hPa ENE 1.1 km/h 3.7 km/h 97 % 0 mm
20:36 15.9 °C 15.4 °C 1006 hPa Calm   1.9 km/h 97 % 0 mm
20:41 15.9 °C 15.5 °C 1006 hPa ENE 1.6 km/h 3.2 km/h 97 % 0 mm
20:46 15.9 °C 15.5 °C 1006 hPa Calm   3.2 km/h 97 % 0 mm
20:51 16 °C 15.5 °C 1006 hPa ENE 1.6 km/h 3.2 km/h 97 % 0 mm
20:56 16 °C 15.5 °C 1006 hPa ENE 1.6 km/h 3.2 km/h 97 % 0 mm
21:01 16 °C 15.5 °C 1006.3 hPa ENE 1.6 km/h 5.6 km/h 97 % 0 mm
21:06 15.9 °C 15.4 °C 1006.3 hPa ENE 6 km/h 11.1 km/h 97 % 0 mm
21:11 15.8 °C 15.3 °C 1006.3 hPa ENE 5.5 km/h 13 km/h 97 % 0 mm
21:16 15.8 °C 15.3 °C 1006 hPa East 6.1 km/h 13 km/h 97 % 0 mm
21:21 15.7 °C 15.2 °C 1006 hPa ENE 6.1 km/h 11.1 km/h 97 % 0 mm
21:26 15.7 °C 15.2 °C 1006.3 hPa NE 6.4 km/h 11.1 km/h 97 % 0 mm
21:31 15.6 °C 15.1 °C 1006.3 hPa ENE 8.2 km/h 13 km/h 97 % 0 mm
21:39 15.6 °C 15.1 °C 1006 hPa ENE 3.9 km/h 5.6 km/h 97 % 0 mm
21:44 15.6 °C 15.1 °C 1006 hPa East 4.7 km/h 7.4 km/h 97 % 0 mm
21:49 15.6 °C 15.1 °C 1005.6 hPa East 6 km/h 7.4 km/h 97 % 0 mm
21:54 15.6 °C 15.1 °C 1005.6 hPa East 4.8 km/h 8 km/h 97 % 0 mm
21:59 15.6 °C 15.1 °C 1005.6 hPa East 6.8 km/h 9.3 km/h 97 % 0 mm
22:04 15.4 °C 14.9 °C 1005.6 hPa East 4.8 km/h 7.4 km/h 97 % 0 mm
22:09 15.4 °C 14.9 °C 1005.6 hPa East 4.5 km/h 5.6 km/h 97 % 0 mm
22:14 15.4 °C 14.9 °C 1006 hPa East 5.1 km/h 7.4 km/h 97 % 0 mm
22:19 15.3 °C 14.8 °C 1006 hPa ENE 4.5 km/h 5.6 km/h 97 % 0 mm
22:24 15.3 °C 14.8 °C 1006.3 hPa ENE 4.7 km/h 11.1 km/h 97 % 0 mm
22:29 15.3 °C 14.8 °C 1006 hPa ENE 5.5 km/h 7.4 km/h 97 % 0 mm
22:34 15.2 °C 14.7 °C 1006 hPa ENE 5.1 km/h 5.6 km/h 97 % 0 mm
22:40 15.2 °C 14.7 °C 1006 hPa East 4.5 km/h 7.4 km/h 97 % 0 mm
22:45 15.2 °C 14.7 °C 1005.6 hPa East 4.5 km/h 7.4 km/h 97 % 0 mm
22:50 15.2 °C 14.7 °C 1005.6 hPa East 4.5 km/h 7.4 km/h 97 % 0 mm
22:55 15.2 °C 14.7 °C 1006 hPa ENE 5.6 km/h 9.7 km/h 97 % 0 mm
23:00 15.2 °C 14.7 °C 1005.6 hPa East 4.5 km/h 5.6 km/h 97 % 0 mm
23:05 15.2 °C 14.7 °C 1005.6 hPa ENE 5.6 km/h 11.1 km/h 97 % 0 mm
23:10 15.1 °C 14.6 °C 1005.6 hPa ENE 3.9 km/h 6.4 km/h 97 % 0 mm
23:15 14.9 °C 14.5 °C 1006 hPa ENE 9.8 km/h 16.7 km/h 97 % 0 mm
23:20 14.9 °C 14.4 °C 1006 hPa ENE 9.2 km/h 13 km/h 97 % 0 mm
23:25 14.8 °C 14.3 °C 1006.3 hPa East 11.3 km/h 16.7 km/h 97 % 0 mm
23:30 14.7 °C 14.2 °C 1006.3 hPa NE 10.5 km/h 14.8 km/h 97 % 0 mm
23:35 14.6 °C 14.2 °C 1006.3 hPa ENE 9.3 km/h 13 km/h 97 % 0 mm
23:40 14.6 °C 14.2 °C 1006.3 hPa ENE 10.1 km/h 18.5 km/h 97 % 0 mm
23:45 14.5 °C 14.1 °C 1005.6 hPa ENE 9 km/h 16.7 km/h 97 % 0 mm
23:50 14.4 °C 13.9 °C 1006 hPa ENE 11.1 km/h 16.7 km/h 97 % 0 mm
23:55 14.3 °C 13.9 °C 1006 hPa NE 9.8 km/h 11.3 km/h 97 % 0 mm
Crab Meadow Weather
Compliments of Weather Underground - 3 mb

Script developed by  Jim McMurry - jmcmurry@mwt.net Adapted for the template by  Wim van der Kuil - Leuven-Template.eu

Weather Terms: Advisory - An advisory is issued when a hazardous weather or hydrologic event is occurring, imminent or likely. Advisories are for less serious conditions than warnings, that cause significant inconvenience and if caution is not exercised, could lead to situations that may threaten life or property.